Year,Month,Day,Hour,Minute,Value (Times are PST for temperature in C)
2015,08,24,00,00,16.50
2015,08,24,00,01,16.50
2015,08,24,00,02,16.50
2015,08,24,00,03,16.40
2015,08,24,00,04,16.40
2015,08,24,00,05,16.40
2015,08,24,00,06,16.40
2015,08,24,00,07,16.30
2015,08,24,00,08,16.30
2015,08,24,00,09,16.30
2015,08,24,00,10,16.30
2015,08,24,00,11,16.30
2015,08,24,00,12,16.30
2015,08,24,00,13,16.30
2015,08,24,00,14,16.30
2015,08,24,00,15,16.30
2015,08,24,00,16,16.20
2015,08,24,00,17,16.20
2015,08,24,00,18,16.20
2015,08,24,00,19,16.20
2015,08,24,00,20,16.20
2015,08,24,00,21,16.20
2015,08,24,00,22,16.20
2015,08,24,00,23,16.20
2015,08,24,00,24,16.20
2015,08,24,00,25,16.20
2015,08,24,00,26,16.20
2015,08,24,00,27,16.10
2015,08,24,00,28,16.10
2015,08,24,00,29,16.10
2015,08,24,00,30,16.10
2015,08,24,00,31,16.10
2015,08,24,00,32,16.10
2015,08,24,00,33,16.10
2015,08,24,00,34,16.10
2015,08,24,00,35,16.10
2015,08,24,00,36,16.10
2015,08,24,00,37,16.10
2015,08,24,00,38,16.10
2015,08,24,00,39,16.10
2015,08,24,00,40,16.00
2015,08,24,00,41,16.00
2015,08,24,00,42,16.00
2015,08,24,00,43,16.00
2015,08,24,00,44,16.00
2015,08,24,00,45,16.00
2015,08,24,00,46,16.00
2015,08,24,00,47,16.00
2015,08,24,00,48,16.00
2015,08,24,00,49,16.00
2015,08,24,00,50,16.00
2015,08,24,00,51,16.00
2015,08,24,00,52,16.00
2015,08,24,00,53,15.90
2015,08,24,00,54,15.90
2015,08,24,00,55,15.90
2015,08,24,00,56,15.90
2015,08,24,00,57,15.90
2015,08,24,00,58,15.90
2015,08,24,00,59,15.90
2015,08,24,01,00,15.80
2015,08,24,01,01,15.80
2015,08,24,01,02,15.80
2015,08,24,01,03,15.80
2015,08,24,01,04,15.80
2015,08,24,01,05,15.80
2015,08,24,01,06,15.80
2015,08,24,01,07,15.80
2015,08,24,01,08,15.80
2015,08,24,01,09,15.80
2015,08,24,01,10,15.80
2015,08,24,01,11,15.80
2015,08,24,01,12,15.80
2015,08,24,01,13,15.80
2015,08,24,01,14,15.80
2015,08,24,01,15,15.80
2015,08,24,01,16,15.80
2015,08,24,01,17,15.80
2015,08,24,01,18,15.70
2015,08,24,01,19,15.70
2015,08,24,01,20,15.70
2015,08,24,01,21,15.70
2015,08,24,01,22,15.70
2015,08,24,01,23,15.70
2015,08,24,01,24,15.70
2015,08,24,01,25,15.70
2015,08,24,01,26,15.70
2015,08,24,01,27,15.70
2015,08,24,01,28,15.70
2015,08,24,01,29,15.70
2015,08,24,01,30,15.60
2015,08,24,01,31,15.60
2015,08,24,01,32,15.60
2015,08,24,01,33,15.60
2015,08,24,01,34,15.60
2015,08,24,01,35,15.60
2015,08,24,01,36,15.60
2015,08,24,01,37,15.60
2015,08,24,01,38,15.60
2015,08,24,01,39,15.60
2015,08,24,01,40,15.60
2015,08,24,01,41,15.50
2015,08,24,01,42,15.50
2015,08,24,01,43,15.50
2015,08,24,01,44,15.50
2015,08,24,01,45,15.50
2015,08,24,01,46,15.40
2015,08,24,01,47,15.40
2015,08,24,01,48,15.40
2015,08,24,01,49,15.40
2015,08,24,01,50,15.40
2015,08,24,01,51,15.40
2015,08,24,01,52,15.30
2015,08,24,01,53,15.30
2015,08,24,01,54,15.30
2015,08,24,01,55,15.30
2015,08,24,01,56,15.30
2015,08,24,01,57,15.30
2015,08,24,01,58,15.30
2015,08,24,01,59,15.30
2015,08,24,02,00,15.30
2015,08,24,02,01,15.20
2015,08,24,02,02,15.30
2015,08,24,02,03,15.20
2015,08,24,02,04,15.20
2015,08,24,02,05,15.20
2015,08,24,02,06,15.20
2015,08,24,02,07,15.20
2015,08,24,02,08,15.20
2015,08,24,02,09,15.20
2015,08,24,02,10,15.20
2015,08,24,02,11,15.20
2015,08,24,02,12,15.20
2015,08,24,02,13,15.20
2015,08,24,02,14,15.20
2015,08,24,02,15,15.10
2015,08,24,02,16,15.10
2015,08,24,02,17,15.10
2015,08,24,02,18,15.10
2015,08,24,02,19,15.10
2015,08,24,02,20,15.10
2015,08,24,02,21,15.10
2015,08,24,02,22,15.10
2015,08,24,02,23,15.10
2015,08,24,02,24,15.10
2015,08,24,02,25,15.10
2015,08,24,02,26,15.00
2015,08,24,02,27,15.00
2015,08,24,02,28,15.00
2015,08,24,02,29,15.00
2015,08,24,02,30,15.10
2015,08,24,02,31,15.00
2015,08,24,02,32,15.00
2015,08,24,02,33,15.00
2015,08,24,02,34,15.10
2015,08,24,02,35,15.10
2015,08,24,02,36,15.00
2015,08,24,02,37,15.10
2015,08,24,02,38,15.00
2015,08,24,02,39,15.10
2015,08,24,02,40,15.10
2015,08,24,02,41,15.10
2015,08,24,02,42,15.10
2015,08,24,02,43,15.10
2015,08,24,02,44,15.00
2015,08,24,02,45,15.00
2015,08,24,02,46,15.00
2015,08,24,02,47,15.00
2015,08,24,02,48,15.00
2015,08,24,02,49,15.00
2015,08,24,02,50,15.00
2015,08,24,02,51,14.90
2015,08,24,02,52,14.90
2015,08,24,02,53,14.90
2015,08,24,02,54,14.90
2015,08,24,02,55,14.90
2015,08,24,02,56,14.90
2015,08,24,02,57,14.90
2015,08,24,02,58,14.90
2015,08,24,02,59,14.90
2015,08,24,03,00,14.80
2015,08,24,03,01,14.80
2015,08,24,03,02,14.80
2015,08,24,04,02,14.10
2015,08,24,04,03,14.10
2015,08,24,04,04,14.10
2015,08,24,04,05,14.00
2015,08,24,04,06,14.10
2015,08,24,04,07,14.10
2015,08,24,04,08,14.10
2015,08,24,04,09,14.10
2015,08,24,04,10,14.10
2015,08,24,04,11,14.10
2015,08,24,04,12,14.10
2015,08,24,04,13,14.10
2015,08,24,04,14,14.00
2015,08,24,04,15,14.00
2015,08,24,04,16,14.00
2015,08,24,04,17,14.00
2015,08,24,04,18,14.00
2015,08,24,04,19,14.00
2015,08,24,04,20,13.90
2015,08,24,04,21,13.90
2015,08,24,04,22,13.90
2015,08,24,04,23,13.90
2015,08,24,04,24,13.90
2015,08,24,04,25,13.90
2015,08,24,04,26,13.90
2015,08,24,04,27,13.90
2015,08,24,04,28,13.90
2015,08,24,04,29,13.90
2015,08,24,04,30,13.90
2015,08,24,04,31,13.80
2015,08,24,04,32,13.80
2015,08,24,04,33,13.80
2015,08,24,04,34,13.80
2015,08,24,04,35,13.80
2015,08,24,04,36,13.80
2015,08,24,04,37,13.70
2015,08,24,04,38,13.70
2015,08,24,04,39,13.70
2015,08,24,04,40,13.70
2015,08,24,04,41,13.70
2015,08,24,04,42,13.70
2015,08,24,04,43,13.70
2015,08,24,04,44,13.70
2015,08,24,04,45,13.70
2015,08,24,04,46,13.60
2015,08,24,04,47,13.60
2015,08,24,04,48,13.60
2015,08,24,04,49,13.70
2015,08,24,04,50,13.70
2015,08,24,04,51,13.70
2015,08,24,04,52,13.80
2015,08,24,04,53,13.80
2015,08,24,04,54,13.70
2015,08,24,04,55,13.70
2015,08,24,04,56,13.70
2015,08,24,04,57,13.70
2015,08,24,04,58,13.70
2015,08,24,04,59,13.70
2015,08,24,05,00,13.70
2015,08,24,05,01,13.70
2015,08,24,05,02,13.70
2015,08,24,05,03,13.70
2015,08,24,05,04,13.70
2015,08,24,05,05,13.60
2015,08,24,05,06,13.60
2015,08,24,05,07,13.50
2015,08,24,05,08,13.50
2015,08,24,05,09,13.40
2015,08,24,05,10,13.40
2015,08,24,05,11,13.40
2015,08,24,05,12,13.30
2015,08,24,05,13,13.30
2015,08,24,05,14,13.30
2015,08,24,05,15,13.30
2015,08,24,05,16,13.30
2015,08,24,05,17,13.30
2015,08,24,05,18,13.30
2015,08,24,05,19,13.30
2015,08,24,05,20,13.30
2015,08,24,05,21,13.30
2015,08,24,05,22,13.20
2015,08,24,05,23,13.20
2015,08,24,05,24,13.20
2015,08,24,05,25,13.20
2015,08,24,05,26,13.20
2015,08,24,05,27,13.20
2015,08,24,05,28,13.20
2015,08,24,05,29,13.10
2015,08,24,05,30,13.10
2015,08,24,05,31,13.10
2015,08,24,05,32,13.00
2015,08,24,05,33,13.00
2015,08,24,05,34,12.90
2015,08,24,05,35,12.90
2015,08,24,05,36,12.90
2015,08,24,05,37,12.90
2015,08,24,05,38,12.80
2015,08,24,05,39,12.80
2015,08,24,05,40,12.80
2015,08,24,05,41,12.80
2015,08,24,05,42,12.80
2015,08,24,05,43,12.70
2015,08,24,05,44,12.70
2015,08,24,05,45,12.70
2015,08,24,05,46,12.70
2015,08,24,05,47,12.60
2015,08,24,05,48,12.60
2015,08,24,05,49,12.60
2015,08,24,05,50,12.60
2015,08,24,05,51,12.60
2015,08,24,05,52,12.60
2015,08,24,05,53,12.60
2015,08,24,05,54,12.60
2015,08,24,05,55,12.60
2015,08,24,05,56,12.60
2015,08,24,05,57,12.50
2015,08,24,05,58,12.50
2015,08,24,05,59,12.50
2015,08,24,06,00,12.50
2015,08,24,06,01,12.50
2015,08,24,06,02,12.50
2015,08,24,06,03,12.50
2015,08,24,06,04,12.40
2015,08,24,06,05,12.40
2015,08,24,06,06,12.40
2015,08,24,06,07,12.40
2015,08,24,06,08,12.30
2015,08,24,06,09,12.30
2015,08,24,06,10,12.30
2015,08,24,06,11,12.30
2015,08,24,06,12,12.30
2015,08,24,06,13,12.30
2015,08,24,06,14,12.20
2015,08,24,06,15,12.20
2015,08,24,06,16,12.20
2015,08,24,06,17,12.20
2015,08,24,06,18,12.20
2015,08,24,06,19,12.20
2015,08,24,06,20,12.20
2015,08,24,06,21,12.20
2015,08,24,06,22,12.20
2015,08,24,06,23,12.20
2015,08,24,06,24,12.20
2015,08,24,06,25,12.20
2015,08,24,06,26,12.10
2015,08,24,06,27,12.10
2015,08,24,06,28,12.10
2015,08,24,06,29,12.10
2015,08,24,06,30,12.10
2015,08,24,06,31,12.00
2015,08,24,06,32,12.00
2015,08,24,06,33,12.00
2015,08,24,06,34,11.90
2015,08,24,06,35,11.90
2015,08,24,06,36,11.90
2015,08,24,06,37,11.90
2015,08,24,06,38,11.80
2015,08,24,06,39,11.80
2015,08,24,06,40,11.80
2015,08,24,06,41,11.80
2015,08,24,06,42,11.90
2015,08,24,06,43,11.90
2015,08,24,06,44,11.90
2015,08,24,06,45,11.80
2015,08,24,06,46,11.80
2015,08,24,06,47,11.80
2015,08,24,06,48,11.90
2015,08,24,06,49,11.90
2015,08,24,06,50,11.90
2015,08,24,06,51,11.90
2015,08,24,06,52,11.90
2015,08,24,06,53,11.90
2015,08,24,06,54,11.90
2015,08,24,06,55,11.90
2015,08,24,06,56,11.90
2015,08,24,06,57,11.90
2015,08,24,06,58,11.90
2015,08,24,06,59,11.90
2015,08,24,07,00,11.90
2015,08,24,07,01,11.90
2015,08,24,07,02,11.90
2015,08,24,07,03,11.90
2015,08,24,07,04,11.90
2015,08,24,07,05,12.00
2015,08,24,07,06,12.00
2015,08,24,07,07,12.00
2015,08,24,07,08,12.00
2015,08,24,07,09,12.00
2015,08,24,07,10,12.10
2015,08,24,07,11,12.10
2015,08,24,07,12,12.10
2015,08,24,07,13,12.20
2015,08,24,07,14,12.20
2015,08,24,07,15,12.30
2015,08,24,07,16,12.30
2015,08,24,07,17,12.40
2015,08,24,07,18,12.40
2015,08,24,07,19,12.50
2015,08,24,07,20,12.50
2015,08,24,07,21,12.60
2015,08,24,07,22,12.70
2015,08,24,07,23,12.70
2015,08,24,07,24,12.70
2015,08,24,07,25,12.80
2015,08,24,07,26,12.80
2015,08,24,07,27,12.80
2015,08,24,07,28,12.80
2015,08,24,07,29,12.90
2015,08,24,07,30,12.90
2015,08,24,07,31,12.90
2015,08,24,07,32,13.00
2015,08,24,07,33,13.00
2015,08,24,07,34,13.00
2015,08,24,07,35,13.10
2015,08,24,07,36,13.10
2015,08,24,07,37,13.10
2015,08,24,07,38,13.10
2015,08,24,07,39,13.20
2015,08,24,07,40,13.30
2015,08,24,07,41,13.30
2015,08,24,07,42,13.40
2015,08,24,07,43,13.40
2015,08,24,07,44,13.50
2015,08,24,07,45,13.50
2015,08,24,07,46,13.60
2015,08,24,07,47,13.60
2015,08,24,07,48,13.60
2015,08,24,07,49,13.70
2015,08,24,07,50,13.70
2015,08,24,07,51,13.70
2015,08,24,07,52,13.80
2015,08,24,07,53,13.90
2015,08,24,07,54,13.90
2015,08,24,07,55,14.00
2015,08,24,07,56,14.10
2015,08,24,07,57,14.10
2015,08,24,07,58,14.10
2015,08,24,07,59,14.10
2015,08,24,08,00,14.10
2015,08,24,08,01,14.20
2015,08,24,08,02,14.20
2015,08,24,08,03,14.20
2015,08,24,08,04,14.20
2015,08,24,08,05,14.30
2015,08,24,08,06,14.30
2015,08,24,08,07,14.30
2015,08,24,08,08,14.40
2015,08,24,08,09,14.40
2015,08,24,08,10,14.40
2015,08,24,08,11,14.50
2015,08,24,08,12,14.50
2015,08,24,08,13,14.60
2015,08,24,08,14,14.60
2015,08,24,08,15,14.70
2015,08,24,08,16,14.70
2015,08,24,08,17,14.70
2015,08,24,08,18,14.80
2015,08,24,08,19,14.80
2015,08,24,08,20,14.80
2015,08,24,08,21,14.90
2015,08,24,08,22,14.90
2015,08,24,08,23,14.90
2015,08,24,08,24,15.00
2015,08,24,08,25,15.00
2015,08,24,08,26,15.00
2015,08,24,08,27,15.10
2015,08,24,08,28,15.10
2015,08,24,08,29,15.10
2015,08,24,08,30,15.10
2015,08,24,08,31,15.20
2015,08,24,08,32,15.20
2015,08,24,08,33,15.20
2015,08,24,08,34,15.30
2015,08,24,08,35,15.30
2015,08,24,08,36,15.30
2015,08,24,08,37,15.40
2015,08,24,08,38,15.50
2015,08,24,08,39,15.50
2015,08,24,08,40,15.60
2015,08,24,08,41,15.60
2015,08,24,08,42,15.70
2015,08,24,08,43,15.70
2015,08,24,08,44,15.70
2015,08,24,08,45,15.70
2015,08,24,08,46,15.70
2015,08,24,08,47,15.80
2015,08,24,08,48,15.80
2015,08,24,08,49,15.70
2015,08,24,08,50,15.70
2015,08,24,08,51,15.70
2015,08,24,08,52,15.70
2015,08,24,08,53,15.70
2015,08,24,08,54,15.70
2015,08,24,08,55,15.70
2015,08,24,08,56,15.70
2015,08,24,08,57,15.60
2015,08,24,08,58,15.70
2015,08,24,08,59,15.70
2015,08,24,09,00,15.70
2015,08,24,09,01,15.70
2015,08,24,09,02,15.80
2015,08,24,09,03,15.80
2015,08,24,09,04,15.80
2015,08,24,09,05,15.90
2015,08,24,09,06,15.90
2015,08,24,09,07,15.90
2015,08,24,09,08,15.90
2015,08,24,09,09,15.90
2015,08,24,09,10,15.90
2015,08,24,09,11,16.00
2015,08,24,09,12,16.00
2015,08,24,09,13,16.10
2015,08,24,09,14,16.10
2015,08,24,09,15,16.10
2015,08,24,09,16,16.10
2015,08,24,09,17,16.20
2015,08,24,09,18,16.20
2015,08,24,09,19,16.20
2015,08,24,09,20,16.20
2015,08,24,09,21,16.20
2015,08,24,09,22,16.20
2015,08,24,09,23,16.20
2015,08,24,09,24,16.20
2015,08,24,09,25,16.20
2015,08,24,09,26,16.20
2015,08,24,09,27,16.20
2015,08,24,09,28,16.20
2015,08,24,09,29,16.30
2015,08,24,09,30,16.40
2015,08,24,09,31,16.40
2015,08,24,09,32,16.50
2015,08,24,09,33,16.60
2015,08,24,09,34,16.70
2015,08,24,09,35,16.70
2015,08,24,09,36,16.80
2015,08,24,09,37,16.80
2015,08,24,09,38,16.80
2015,08,24,09,39,16.80
2015,08,24,09,40,16.90
2015,08,24,09,41,16.90
2015,08,24,09,42,17.00
2015,08,24,09,43,17.10
2015,08,24,09,44,17.10
2015,08,24,09,45,17.20
2015,08,24,09,46,17.20
2015,08,24,09,47,17.30
2015,08,24,09,48,17.30
2015,08,24,09,49,17.30
2015,08,24,09,50,17.30
2015,08,24,09,51,17.30
2015,08,24,09,52,17.40
2015,08,24,09,53,17.40
2015,08,24,09,54,17.50
2015,08,24,09,55,17.50
2015,08,24,09,56,17.50
2015,08,24,09,57,17.50
2015,08,24,09,58,17.40
2015,08,24,09,59,17.40
2015,08,24,10,00,17.40
2015,08,24,10,01,17.40
2015,08,24,10,02,17.40
2015,08,24,10,03,17.50
2015,08,24,10,04,17.50
2015,08,24,10,05,17.70
2015,08,24,10,06,17.80
2015,08,24,10,07,17.90
2015,08,24,10,08,18.00
2015,08,24,10,09,18.10
2015,08,24,10,10,18.10
2015,08,24,10,11,18.20
2015,08,24,10,12,18.20
2015,08,24,10,13,18.30
2015,08,24,10,14,18.20
2015,08,24,10,15,18.20
2015,08,24,10,16,18.30
2015,08,24,10,17,18.30
2015,08,24,10,18,18.30
2015,08,24,10,19,18.20
2015,08,24,10,20,18.20
2015,08,24,10,21,18.20
2015,08,24,10,22,18.30
2015,08,24,10,23,18.30
2015,08,24,10,24,18.30
2015,08,24,10,25,18.30
2015,08,24,10,26,18.30
2015,08,24,10,27,18.20
2015,08,24,10,28,18.20
2015,08,24,10,29,18.20
2015,08,24,10,30,18.20
2015,08,24,10,31,18.20
2015,08,24,10,32,18.20
2015,08,24,10,33,18.20
2015,08,24,10,34,18.20
2015,08,24,10,35,18.20
2015,08,24,10,36,18.20
2015,08,24,10,37,18.20
2015,08,24,10,38,18.20
2015,08,24,10,39,18.30
2015,08,24,10,40,18.40
2015,08,24,10,41,18.50
2015,08,24,10,42,18.70
2015,08,24,10,43,18.80
2015,08,24,10,44,18.80
2015,08,24,10,45,18.90
2015,08,24,10,46,19.00
2015,08,24,10,47,19.10
2015,08,24,10,48,19.10
2015,08,24,10,49,19.10
2015,08,24,10,50,19.10
2015,08,24,10,51,19.10
2015,08,24,10,52,19.10
2015,08,24,10,53,19.10
2015,08,24,10,54,19.10
2015,08,24,10,55,19.10
2015,08,24,10,56,19.00
2015,08,24,10,57,18.90
2015,08,24,10,58,18.90
2015,08,24,10,59,18.90
2015,08,24,11,00,18.90
2015,08,24,11,01,18.90
2015,08,24,11,02,19.00
2015,08,24,11,03,19.00
2015,08,24,11,04,19.00
2015,08,24,11,05,18.90
2015,08,24,11,06,18.80
2015,08,24,11,07,18.80
2015,08,24,11,08,18.70
2015,08,24,11,09,18.70
2015,08,24,11,10,18.60
2015,08,24,11,11,18.60
2015,08,24,11,12,18.70
2015,08,24,11,13,18.80
2015,08,24,11,14,18.90
2015,08,24,11,15,18.90
2015,08,24,11,16,19.00
2015,08,24,11,17,19.10
2015,08,24,11,18,19.10
2015,08,24,11,19,19.10
2015,08,24,11,20,19.20
2015,08,24,11,21,19.20
2015,08,24,11,22,19.20
2015,08,24,11,23,19.20
2015,08,24,11,24,19.20
2015,08,24,11,25,19.00
2015,08,24,11,26,18.90
2015,08,24,11,27,18.80
2015,08,24,11,28,18.70
2015,08,24,11,29,18.70
2015,08,24,11,30,18.70
2015,08,24,11,31,18.70
2015,08,24,11,32,18.70
2015,08,24,11,33,18.80
2015,08,24,11,34,18.80
2015,08,24,11,35,18.80
2015,08,24,11,36,18.80
2015,08,24,11,37,18.80
2015,08,24,11,38,18.80
2015,08,24,11,39,18.80
2015,08,24,11,40,18.80
2015,08,24,11,41,18.70
2015,08,24,11,42,18.70
2015,08,24,11,43,18.70
2015,08,24,11,44,18.70
2015,08,24,11,45,18.80
2015,08,24,11,46,18.80
2015,08,24,11,47,18.80
2015,08,24,11,48,18.70
2015,08,24,11,49,18.60
2015,08,24,11,50,18.50
2015,08,24,11,51,18.40
2015,08,24,11,52,18.40
2015,08,24,11,53,18.40
2015,08,24,11,54,18.30
2015,08,24,11,55,18.30
2015,08,24,11,56,18.30
2015,08,24,11,57,18.30
2015,08,24,11,58,18.30
2015,08,24,11,59,18.30
2015,08,24,12,00,18.40
2015,08,24,12,01,18.50
2015,08,24,12,02,18.60
2015,08,24,12,03,18.70
2015,08,24,12,04,18.70
2015,08,24,12,05,18.70
2015,08,24,12,06,18.80
2015,08,24,12,07,18.90
2015,08,24,12,08,18.90
2015,08,24,12,09,19.00
2015,08,24,12,10,19.10
2015,08,24,12,11,19.10
2015,08,24,12,12,19.10
2015,08,24,12,13,19.20
2015,08,24,12,14,19.30
2015,08,24,12,15,19.30
2015,08,24,12,16,19.30
2015,08,24,12,17,19.30
2015,08,24,12,18,19.30
2015,08,24,12,19,19.30
2015,08,24,12,20,19.30
2015,08,24,12,21,19.30
2015,08,24,12,22,19.30
2015,08,24,12,23,19.30
2015,08,24,12,24,19.30
2015,08,24,12,25,19.40
2015,08,24,12,26,19.40
2015,08,24,12,27,19.50
2015,08,24,12,28,19.50
2015,08,24,12,29,19.60
2015,08,24,12,30,19.70
2015,08,24,12,31,19.70
2015,08,24,12,32,19.70
2015,08,24,12,33,19.70
2015,08,24,12,34,19.70
2015,08,24,12,35,19.70
2015,08,24,12,36,19.60
2015,08,24,12,37,19.60
2015,08,24,12,38,19.60
2015,08,24,12,39,19.50
2015,08,24,12,40,19.40
2015,08,24,12,41,19.40
2015,08,24,12,42,19.40
2015,08,24,12,43,19.30
2015,08,24,12,44,19.30
2015,08,24,12,45,19.30
2015,08,24,12,46,19.20
2015,08,24,12,47,19.20
2015,08,24,12,48,19.20
2015,08,24,12,49,19.30
2015,08,24,12,50,19.30
2015,08,24,12,51,19.40
2015,08,24,12,52,19.40
2015,08,24,12,53,19.50
2015,08,24,12,54,19.60
2015,08,24,12,55,19.60
2015,08,24,12,56,19.60
2015,08,24,12,57,19.70
2015,08,24,12,58,19.70
2015,08,24,12,59,19.80
2015,08,24,13,00,19.90
2015,08,24,13,01,20.00
2015,08,24,13,02,20.00
2015,08,24,13,03,20.10
2015,08,24,13,04,20.10
2015,08,24,13,05,20.10
2015,08,24,13,06,20.20
2015,08,24,13,07,20.20
2015,08,24,13,08,20.20
2015,08,24,13,09,20.30
2015,08,24,13,10,20.30
2015,08,24,13,11,20.20
2015,08,24,13,12,20.20
2015,08,24,13,13,20.10
2015,08,24,13,14,20.10
2015,08,24,13,15,20.00
2015,08,24,13,16,19.90
2015,08,24,13,17,19.80
2015,08,24,13,18,19.80
2015,08,24,13,19,19.70
2015,08,24,13,20,19.70
2015,08,24,13,21,19.80
2015,08,24,13,22,19.90
2015,08,24,13,23,19.90
2015,08,24,13,24,20.00
2015,08,24,13,25,20.00
2015,08,24,13,26,20.10
2015,08,24,13,27,20.10
2015,08,24,13,28,20.20
2015,08,24,13,29,20.20
2015,08,24,13,30,20.30
2015,08,24,13,31,20.40
2015,08,24,13,32,20.50
2015,08,24,13,33,20.60
2015,08,24,13,34,20.70
2015,08,24,13,35,20.80
2015,08,24,13,36,20.80
2015,08,24,13,37,20.90
2015,08,24,13,38,20.90
2015,08,24,13,39,20.80
2015,08,24,13,40,20.90
2015,08,24,13,41,20.90
2015,08,24,13,42,20.90
2015,08,24,13,43,20.90
2015,08,24,13,44,20.90
2015,08,24,13,45,20.90
2015,08,24,13,46,20.90
2015,08,24,13,47,20.90
2015,08,24,13,48,20.80
2015,08,24,13,49,20.80
2015,08,24,13,50,20.70
2015,08,24,13,51,20.70
2015,08,24,13,52,20.70
2015,08,24,13,53,20.70
2015,08,24,13,54,20.60
2015,08,24,13,55,20.60
2015,08,24,13,56,20.60
2015,08,24,13,57,20.70
2015,08,24,13,58,20.70
2015,08,24,13,59,20.80
2015,08,24,14,00,20.80
2015,08,24,14,01,20.90
2015,08,24,14,02,21.00
2015,08,24,14,03,21.10
2015,08,24,14,04,21.10
2015,08,24,14,05,21.20
2015,08,24,14,06,21.20
2015,08,24,14,07,21.30
2015,08,24,14,08,21.30
2015,08,24,14,09,21.30
2015,08,24,14,10,21.30
2015,08,24,14,11,21.30
2015,08,24,14,12,21.30
2015,08,24,14,13,21.20
2015,08,24,14,14,21.20
2015,08,24,14,15,21.20
2015,08,24,14,16,21.10
2015,08,24,14,17,21.10
2015,08,24,14,18,21.10
2015,08,24,14,19,21.00
2015,08,24,14,20,20.90
2015,08,24,14,21,21.00
2015,08,24,14,22,21.00
2015,08,24,14,23,21.10
2015,08,24,14,24,21.20
2015,08,24,14,25,21.20
2015,08,24,14,26,21.30
2015,08,24,14,27,21.30
2015,08,24,14,28,21.40
2015,08,24,14,29,21.40
2015,08,24,14,30,21.50
2015,08,24,14,31,21.50
2015,08,24,14,32,21.60
2015,08,24,14,33,21.60
2015,08,24,14,34,21.70
2015,08,24,14,35,21.70
2015,08,24,14,36,21.70
2015,08,24,14,37,21.70
2015,08,24,14,38,21.80
2015,08,24,14,39,21.90
2015,08,24,14,40,21.90
2015,08,24,14,41,22.00
2015,08,24,14,42,22.10
2015,08,24,14,43,22.20
2015,08,24,14,44,22.20
2015,08,24,14,45,22.20
2015,08,24,14,46,22.10
2015,08,24,14,47,22.00
2015,08,24,14,48,21.90
2015,08,24,14,49,21.90
2015,08,24,14,50,21.90
2015,08,24,14,51,21.90
2015,08,24,14,52,22.00
2015,08,24,14,53,22.10
2015,08,24,14,54,22.10
2015,08,24,14,55,22.20
2015,08,24,14,56,22.20
2015,08,24,14,57,22.20
2015,08,24,14,58,22.20
2015,08,24,14,59,22.30
2015,08,24,15,00,22.30
2015,08,24,15,01,22.30
2015,08,24,15,02,22.40
2015,08,24,15,03,22.40
2015,08,24,15,04,22.40
2015,08,24,15,05,22.40
2015,08,24,15,06,22.30
2015,08,24,15,07,22.30
2015,08,24,15,08,22.30
2015,08,24,15,09,22.30
2015,08,24,15,10,22.20
2015,08,24,15,11,22.20
2015,08,24,15,12,22.20
2015,08,24,15,13,22.20
2015,08,24,15,14,22.20
2015,08,24,15,15,22.20
2015,08,24,15,16,22.20
2015,08,24,15,17,22.20
2015,08,24,15,18,22.00
2015,08,24,15,19,21.90
2015,08,24,15,20,21.80
2015,08,24,15,21,21.70
2015,08,24,15,22,21.60
2015,08,24,15,23,21.60
2015,08,24,15,24,21.70
2015,08,24,15,25,21.70
2015,08,24,15,26,21.80
2015,08,24,15,27,21.80
2015,08,24,15,28,21.80
2015,08,24,15,29,21.80
2015,08,24,15,30,21.90
2015,08,24,15,31,21.90
2015,08,24,15,32,22.00
2015,08,24,15,33,21.90
2015,08,24,15,34,21.90
2015,08,24,15,35,21.80
2015,08,24,15,36,21.70
2015,08,24,15,37,21.60
2015,08,24,15,38,21.60
2015,08,24,15,39,21.60
2015,08,24,15,40,21.50
2015,08,24,15,41,21.40
2015,08,24,15,42,21.40
2015,08,24,15,43,21.40
2015,08,24,15,44,21.40
2015,08,24,15,45,21.40
2015,08,24,15,46,21.50
2015,08,24,15,47,21.60
2015,08,24,15,48,21.60
2015,08,24,15,49,21.70
2015,08,24,15,50,21.70
2015,08,24,15,51,21.70
2015,08,24,15,52,21.70
2015,08,24,15,53,21.70
2015,08,24,15,54,21.60
2015,08,24,15,55,21.60
2015,08,24,15,56,21.60
2015,08,24,15,57,21.60
2015,08,24,15,58,21.60
2015,08,24,15,59,21.60
2015,08,24,16,00,21.50
2015,08,24,16,01,21.50
2015,08,24,16,02,21.40
2015,08,24,16,03,21.30
2015,08,24,16,04,21.30
2015,08,24,16,05,21.30
2015,08,24,16,06,21.30
2015,08,24,16,07,21.40
2015,08,24,16,08,21.50
2015,08,24,16,09,21.60
2015,08,24,16,10,21.60
2015,08,24,16,11,21.70
2015,08,24,16,12,21.80
2015,08,24,16,13,21.80
2015,08,24,16,14,21.90
2015,08,24,16,15,22.00
2015,08,24,16,16,22.00
2015,08,24,16,17,22.10
2015,08,24,16,18,22.20
2015,08,24,16,19,22.30
2015,08,24,16,20,22.40
2015,08,24,16,21,22.50
2015,08,24,16,22,22.60
2015,08,24,16,23,22.60
2015,08,24,16,24,22.70
2015,08,24,16,25,22.70
2015,08,24,16,26,22.70
2015,08,24,16,27,22.60
2015,08,24,16,28,22.60
2015,08,24,16,29,22.70
2015,08,24,16,30,22.70
2015,08,24,16,31,22.70
2015,08,24,16,32,22.70
2015,08,24,16,33,22.70
2015,08,24,16,34,22.60
2015,08,24,16,35,22.60
2015,08,24,16,36,22.50
2015,08,24,16,37,22.50
2015,08,24,16,38,22.40
2015,08,24,16,39,22.30
2015,08,24,16,40,22.30
2015,08,24,16,41,22.30
2015,08,24,16,42,22.20
2015,08,24,16,43,22.20
2015,08,24,16,44,22.10
2015,08,24,16,45,22.10
2015,08,24,16,46,22.00
2015,08,24,16,47,21.90
2015,08,24,16,48,21.90
2015,08,24,16,49,21.90
2015,08,24,16,50,21.90
2015,08,24,16,51,21.90
2015,08,24,16,52,21.90
2015,08,24,16,53,21.90
2015,08,24,16,54,21.90
2015,08,24,16,55,21.90
2015,08,24,16,56,21.90
2015,08,24,16,57,21.90
2015,08,24,16,58,21.80
2015,08,24,16,59,21.70
2015,08,24,17,00,21.60
2015,08,24,17,01,21.60
2015,08,24,17,02,21.50
2015,08,24,17,03,21.40
2015,08,24,17,04,21.30
2015,08,24,17,05,21.30
2015,08,24,17,06,21.30
2015,08,24,17,07,21.30
2015,08,24,17,08,21.20
2015,08,24,17,09,21.30
2015,08,24,17,10,21.30
2015,08,24,17,11,21.30
2015,08,24,17,12,21.20
2015,08,24,17,13,21.20
2015,08,24,17,14,21.20
2015,08,24,17,15,21.20
2015,08,24,17,16,21.30
2015,08,24,17,17,21.30
2015,08,24,17,18,21.30
2015,08,24,17,19,21.30
2015,08,24,17,20,21.30
2015,08,24,17,21,21.40
2015,08,24,17,22,21.40
2015,08,24,17,23,21.40
2015,08,24,17,24,21.40
2015,08,24,17,25,21.40
2015,08,24,17,26,21.40
2015,08,24,17,27,21.40
2015,08,24,17,28,21.50
2015,08,24,17,29,21.50
2015,08,24,17,30,21.60
2015,08,24,17,31,21.60
2015,08,24,17,32,21.60
2015,08,24,17,33,21.60
2015,08,24,17,34,21.70
2015,08,24,17,35,21.70
2015,08,24,17,36,21.70
2015,08,24,17,37,21.70
2015,08,24,17,38,21.70
2015,08,24,17,39,21.70
2015,08,24,17,40,21.70
2015,08,24,17,41,21.70
2015,08,24,17,42,21.70
2015,08,24,17,43,21.80
2015,08,24,17,44,21.80
2015,08,24,17,45,21.80
2015,08,24,17,46,21.80
2015,08,24,17,47,21.80
2015,08,24,17,48,21.80
2015,08,24,17,49,21.90
2015,08,24,17,50,21.90
2015,08,24,17,51,22.00
2015,08,24,17,52,22.00
2015,08,24,17,53,22.10
2015,08,24,17,54,22.10
2015,08,24,17,55,22.10
2015,08,24,17,56,22.00
2015,08,24,17,57,22.00
2015,08,24,17,58,22.00
2015,08,24,17,59,22.00
2015,08,24,18,00,21.90
2015,08,24,18,01,21.90
2015,08,24,18,02,21.90
2015,08,24,18,03,21.90
2015,08,24,18,04,21.90
2015,08,24,18,05,21.90
2015,08,24,18,06,21.90
2015,08,24,18,07,21.90
2015,08,24,18,08,21.90
2015,08,24,18,09,21.90
2015,08,24,18,10,21.90
2015,08,24,18,11,21.80
2015,08,24,18,12,21.80
2015,08,24,18,13,21.80
2015,08,24,18,14,21.80
2015,08,24,18,15,21.80
2015,08,24,18,16,21.80
2015,08,24,18,17,21.80
2015,08,24,18,18,21.80